• în România
  • Lista ţărilor
  • Pe 7 zile
  • Temperatura apei
  • Hartă satelitară
  • Meteo pe hartă
  • Widget-uri
  • user-avatar
    Intrare

    Meteo pe oră la Stepanakert

    Astăzi, 20 Noiembrie, Luni

    Timp Temperatura Precipitaţii Vânt Presiune Umiditate
    00:00 +11°C° 0 mm 1 m/s 692 mmHg 43%
    01:00 +11°C° 0 mm 1 m/s 692 mmHg 43%
    02:00 +10°C° 0 mm 2 m/s 692 mmHg 42%
    03:00 +10°C° 0 mm 2 m/s 692 mmHg 40%
    04:00 +10°C° 0 mm 2 m/s 692 mmHg 41%
    05:00 +10°C° 0 mm 2 m/s 692 mmHg 42%
    06:00 +10°C° 0 mm 2 m/s 692 mmHg 43%
    07:00 +12°C° 0 mm 2 m/s 692 mmHg 40%
    08:00 +13°C° 0 mm 2 m/s 692 mmHg 38%
    09:00 +15°C° 0 mm 2 m/s 692 mmHg 35%
    10:00 +16°C° 0 mm 2 m/s 692 mmHg 33%
    11:00 +17°C° 0 mm 2 m/s 692 mmHg 31%
    12:00 +18°C° 0 mm 2 m/s 692 mmHg 29%
    13:00 +18°C° 0 mm 2 m/s 692 mmHg 30%
    14:00 +18°C° 0 mm 2 m/s 692 mmHg 32%
    15:00 +17°C° 0 mm 2 m/s 691 mmHg 33%
    16:00 +16°C° 0 mm 2 m/s 691 mmHg 38%
    17:00 +14°C° 0 mm 1 m/s 691 mmHg 42%
    18:00 +13°C° 0 mm 1 m/s 690 mmHg 47%
    19:00 +12°C° 0 mm 1 m/s 690 mmHg 47%
    20:00 +12°C° 0 mm 1 m/s 690 mmHg 47%
    21:00 +12°C° 0 mm 2 m/s 690 mmHg 48%
    22:00 +12°C° 0 mm 2 m/s 690 mmHg 48%
    23:00 +12°C° 0 mm 2 m/s 689 mmHg 48%

    Mâine, 21 Noiembrie, Marţi

    Timp Temperatura Precipitaţii Vânt Presiune Umiditate
    00:00 +10°C° 0 mm 2 m/s 689 mmHg 48%
    01:00 +10°C° 0 mm 2 m/s 689 mmHg 48%
    02:00 +10°C° 0 mm 2 m/s 689 mmHg 48%
    03:00 +10°C° 0 mm 2 m/s 689 mmHg 48%
    04:00 +10°C° 0 mm 2 m/s 689 mmHg 48%
    05:00 +11°C° 0 mm 1 m/s 688 mmHg 48%
    06:00 +11°C° 0 mm 1 m/s 688 mmHg 48%
    07:00 +12°C° 0 mm 1 m/s 688 mmHg 45%
    08:00 +13°C° 0 mm 1 m/s 688 mmHg 43%
    09:00 +14°C° 0 mm 1 m/s 688 mmHg 40%
    10:00 +15°C° 0 mm 1 m/s 688 mmHg 38%
    11:00 +16°C° 0 mm 2 m/s 688 mmHg 36%
    12:00 +17°C° 0 mm 2 m/s 687 mmHg 34%
    13:00 +16°C° 0,1 mm 2 m/s 687 mmHg 37%
    14:00 +16°C° 0,1 mm 2 m/s 686 mmHg 40%
    15:00 +15°C° 0,1 mm 1 m/s 686 mmHg 43%
    16:00 +14°C° 0 mm 1 m/s 686 mmHg 46%
    17:00 +13°C° 0 mm 1 m/s 685 mmHg 49%
    18:00 +12°C° 0 mm 1 m/s 685 mmHg 53%
    19:00 +12°C° 0 mm 1 m/s 685 mmHg 54%
    20:00 +12°C° 0 mm 1 m/s 685 mmHg 54%
    21:00 +12°C° 0 mm 1 m/s 684 mmHg 55%
    22:00 +10°C° 0 mm 2 m/s 684 mmHg 56%
    23:00 +10°C° 0 mm 2 m/s 684 mmHg 57%

    Poimâine, 22 Noiembrie, Miercuri

    Timp Temperatura Precipitaţii Vânt Presiune Umiditate
    00:00 +10°C° 0 mm 2 m/s 684 mmHg 57%
    01:00 +10°C° 0 mm 2 m/s 684 mmHg 57%
    02:00 +9°C° 0 mm 2 m/s 684 mmHg 58%
    03:00 +9°C° 0 mm 2 m/s 683 mmHg 58%
    04:00 +9°C° 0 mm 2 m/s 683 mmHg 57%
    05:00 +9°C° 0 mm 2 m/s 683 mmHg 57%
    06:00 +9°C° 0 mm 2 m/s 683 mmHg 57%
    07:00 +10°C° 0 mm 2 m/s 683 mmHg 55%
    08:00 +12°C° 0 mm 2 m/s 684 mmHg 53%
    09:00 +12°C° 0 mm 2 m/s 684 mmHg 51%
    10:00 +12°C° 0 mm 3 m/s 684 mmHg 49%
    11:00 +12°C° 0 mm 4 m/s 684 mmHg 47%
    12:00 +12°C° 0 mm 4 m/s 685 mmHg 46%
    13:00 +12°C° 0,1 mm 4 m/s 685 mmHg 49%
    14:00 +11°C° 0,1 mm 4 m/s 684 mmHg 51%
    15:00 +10°C° 0,1 mm 4 m/s 684 mmHg 54%
    16:00 +8°C° 0,2 mm 4 m/s 685 mmHg 58%
    17:00 +8°C° 0,2 mm 3 m/s 685 mmHg 62%
    18:00 +7°C° 0,2 mm 3 m/s 686 mmHg 67%
    19:00 +5°C° 0,2 mm 3 m/s 686 mmHg 68%
    20:00 +5°C° 0,2 mm 3 m/s 687 mmHg 69%
    21:00 +5°C° 0,2 mm 3 m/s 687 mmHg 70%
    22:00 +4°C° 0,1 mm 3 m/s 688 mmHg 69%
    23:00 +5°C° 0,1 mm 2 m/s 688 mmHg 69%

    23 Noiembrie, Joi

    Timp Temperatura Precipitaţii Vânt Presiune Umiditate
    00:00 +5°C° 0,1 mm 2 m/s 688 mmHg 68%
    01:00 +4°C° 0,2 mm 2 m/s 688 mmHg 69%
    02:00 +4°C° 0,2 mm 2 m/s 688 mmHg 70%
    03:00 +4°C° 0,2 mm 2 m/s 688 mmHg 72%
    04:00 +3°C° 0,4 mm 2 m/s 688 mmHg 73%
    05:00 +4°C° 0,4 mm 1 m/s 688 mmHg 74%
    06:00 +4°C° 0,4 mm 1 m/s 689 mmHg 76%
    07:00 +4°C° 0,3 mm 1 m/s 689 mmHg 75%
    08:00 +4°C° 0,3 mm 1 m/s 689 mmHg 74%
    09:00 +4°C° 0,3 mm 1 m/s 690 mmHg 73%
    10:00 +4°C° 0 mm 2 m/s 690 mmHg 69%
    11:00 +4°C° 0 mm 2 m/s 690 mmHg 65%
    12:00 +5°C° 0 mm 2 m/s 690 mmHg 61%
    13:00 +5°C° 0 mm 2 m/s 690 mmHg 62%
    14:00 +5°C° 0 mm 2 m/s 690 mmHg 62%
    15:00 +5°C° 0 mm 2 m/s 690 mmHg 63%
    16:00 +4°C° 0,1 mm 2 m/s 690 mmHg 67%
    17:00 +3°C° 0,1 mm 2 m/s 690 mmHg 71%
    18:00 +4°C° 0,1 mm 1 m/s 691 mmHg 76%
    19:00 +3°C° 0 mm 1 m/s 691 mmHg 75%
    20:00 +3°C° 0 mm 1 m/s 691 mmHg 74%
    21:00 +3°C° 0 mm 1 m/s 692 mmHg 74%
    22:00 +2°C° 0 mm 1 m/s 692 mmHg 72%
    23:00 +2°C° 0 mm 1 m/s 692 mmHg 71%

    24 Noiembrie, Vineri

    Timp Temperatura Precipitaţii Vânt Presiune Umiditate
    00:00 +2°C° 0 mm 1 m/s 692 mmHg 69%
    01:00 +2°C° 0 mm 1 m/s 692 mmHg 69%
    02:00 +1°C° 0 mm 2 m/s 692 mmHg 68%
    03:00 -1°C° 0 mm 2 m/s 692 mmHg 67%
    04:00 -1°C° 0 mm 2 m/s 693 mmHg 67%
    05:00 +1°C° 0 mm 1 m/s 693 mmHg 67%
    06:00 0°C° 0 mm 1 m/s 693 mmHg 68%
    07:00 +1°C° 0 mm 1 m/s 694 mmHg 64%
    08:00 +2°C° 0 mm 1 m/s 694 mmHg 60%
    09:00 +3°C° 0 mm 1 m/s 695 mmHg 56%
    10:00 +3°C° 0 mm 2 m/s 694 mmHg 54%
    11:00 +4°C° 0 mm 2 m/s 694 mmHg 52%
    12:00 +3°C° 0 mm 3 m/s 694 mmHg 49%
    13:00 +3°C° 0 mm 3 m/s 694 mmHg 51%
    14:00 +3°C° 0 mm 3 m/s 693 mmHg 52%
    15:00 +3°C° 0 mm 3 m/s 693 mmHg 54%
    16:00 +3°C° 0 mm 2 m/s 694 mmHg 58%
    17:00 +2°C° 0 mm 2 m/s 694 mmHg 62%
    18:00 +2°C° 0 mm 1 m/s 694 mmHg 66%
    19:00 +2°C° 0 mm 1 m/s 694 mmHg 67%
    20:00 +2°C° 0 mm 1 m/s 694 mmHg 67%
    21:00 +2°C° 0 mm 1 m/s 695 mmHg 67%
    22:00 +2°C° 0,1 mm 1 m/s 695 mmHg 68%
    23:00 +2°C° 0,1 mm 1 m/s 695 mmHg 68%

    25 Noiembrie, Sâmbătă

    Timp Temperatura Precipitaţii Vânt Presiune Umiditate
    00:00 +2°C° 0,1 mm 1 m/s 695 mmHg 69%
    01:00 +2°C° 0 mm 1 m/s 695 mmHg 69%
    02:00 +1°C° 0 mm 1 m/s 695 mmHg 70%
    03:00 +1°C° 0 mm 1 m/s 695 mmHg 70%
    04:00 +1°C° 0 mm 1 m/s 696 mmHg 69%
    05:00 +1°C° 0 mm 1 m/s 696 mmHg 68%
    06:00 0°C° 0 mm 1 m/s 696 mmHg 68%
    07:00 -1°C° 0 mm 2 m/s 697 mmHg 63%
    08:00 +1°C° 0 mm 2 m/s 697 mmHg 58%
    09:00 +2°C° 0 mm 2 m/s 698 mmHg 54%
    10:00 +3°C° 0 mm 2 m/s 698 mmHg 49%
    11:00 +4°C° 0 mm 2 m/s 698 mmHg 45%
    12:00 +5°C° 0 mm 2 m/s 698 mmHg 40%
    13:00 +5°C° 0 mm 2 m/s 698 mmHg 41%
    14:00 +5°C° 0 mm 2 m/s 698 mmHg 41%
    15:00 +5°C° 0 mm 2 m/s 698 mmHg 41%
    16:00 +3°C° 0 mm 2 m/s 698 mmHg 45%
    17:00 +3°C° 0 mm 1 m/s 699 mmHg 48%
    18:00 +2°C° 0 mm 1 m/s 699 mmHg 52%
    19:00 +2°C° 0 mm 1 m/s 699 mmHg 52%
    20:00 -1°C° 0 mm 2 m/s 700 mmHg 52%
    21:00 -1°C° 0 mm 2 m/s 700 mmHg 51%
    22:00 -1°C° 0 mm 2 m/s 700 mmHg 50%
    23:00 -2°C° 0 mm 2 m/s 700 mmHg 49%
    Arată mai mult